GW0756 Weather Reports


Display with metric or nautical units.
time (UTC)temp
F
wind
direction
speed
MPH
gust
MPH
rain 1hr
in
rain 24hr
in
rain mn
in
humidity
%
barometer
mb
20260506212448 62 180 0.0 0.0 0.00 0.05 0.05 40 1018.6
20260506211943 60 184 2.0 2.0 0.00 0.05 0.05 44 1019.1
20260506211439 61 179 3.0 5.0 0.00 0.05 0.05 41 1018.8
20260506210937 61 176 0.0 0.0 0.00 0.05 0.05 40 1018.7
20260506210433 60 172 5.0 8.0 0.00 0.05 0.05 42 1018.7
20260506205931 60 168 1.0 2.0 0.00 0.05 0.05 39 1018.9
20260506205426 62 162 2.0 7.0 0.00 0.05 0.05 40 1018.8
20260506204922 62 160 0.0 1.0 0.00 0.05 0.05 42 1019.1
20260506204421 61 160 1.0 1.0 0.00 0.05 0.05 39 1018.9
20260506203918 61 160 1.0 1.0 0.00 0.05 0.05 41 1019.1
20260506203415 61 160 5.0 6.0 0.00 0.05 0.05 43 1019.0
20260506202912 61 160 0.0 0.0 0.00 0.05 0.05 45 1019.2
20260506202409 60 160 3.0 7.0 0.00 0.05 0.05 44 1019.3
20260506201905 61 160 0.0 1.0 0.00 0.05 0.05 49 1019.5
20260506201403 61 160 1.0 2.0 0.00 0.05 0.05 43 1019.5
20260506200859 59 160 0.0 1.0 0.00 0.05 0.05 39 1019.3
20260506200355 60 160 5.0 6.0 0.00 0.05 0.05 41 1019.3
20260506195852 60 160 3.0 5.0 0.00 0.05 0.05 46 1019.6
20260506195349 60 160 2.0 3.0 0.00 0.05 0.05 44 1019.8
20260506194846 61 160 1.0 2.0 0.00 0.05 0.05 46 1019.6
20260506194343 60 160 1.0 1.0 0.00 0.05 0.05 46 1019.6
20260506193840 61 160 3.0 5.0 0.00 0.05 0.05 43 1019.4
20260506193337 61 160 1.0 2.0 0.00 0.05 0.05 45 1019.7
20260506192833 60 160 1.0 3.0 0.00 0.05 0.05 45 1019.5
20260506192330 59 160 4.0 6.0 0.00 0.05 0.05 40 1019.6
20260506191827 60 160 5.0 7.0 0.00 0.05 0.05 42 1020.0
20260506191323 60 160 4.0 5.0 0.00 0.05 0.05 46 1019.9
20260506190820 59 160 0.0 0.0 0.00 0.05 0.05 47 1019.6
20260506190317 59 160 1.0 1.0 0.00 0.05 0.05 43 1020.0
20260506185814 60 160 3.0 5.0 0.00 0.05 0.05 47 1020.0
20260506185311 59 160 0.0 0.0 0.00 0.05 0.05 45 1019.9
20260506184808 58 160 0.0 0.0 0.00 0.05 0.05 46 1020.1
20260506184305 58 160 4.0 6.0 0.00 0.05 0.05 38 1020.0
20260506183802 59 160 1.0 1.0 0.00 0.05 0.05 43 1020.0
20260506183257 59 160 0.0 1.0 0.00 0.05 0.05 47 1020.0
20260506182754 60 160 6.0 8.0 0.00 0.05 0.05 43 1020.2
20260506182251 59 160 1.0 2.0 0.00 0.05 0.05 47 1020.2
20260506181749 59 160 3.0 5.0 0.00 0.05 0.05 45 1020.0
20260506181247 60 160 5.0 7.0 0.00 0.05 0.05 39 1020.0
20260506180744 58 160 3.0 3.0 0.00 0.05 0.05 42 1020.2
20260506180239 59 160 0.0 1.0 0.00 0.05 0.05 45 1020.3
20260506175736 58 160 1.0 3.0 0.00 0.05 0.05 47 1020.3
20260506175233 59 160 4.0 6.0 0.00 0.05 0.05 43 1020.4
20260506174731 59 160 4.0 6.0 0.00 0.05 0.05 44 1020.2
20260506174227 59 160 2.0 2.0 0.00 0.05 0.05 52 1020.6
20260506173725 58 160 0.0 0.0 0.00 0.05 0.05 44 1020.6
20260506173222 58 160 4.0 5.0 0.00 0.05 0.05 49 1020.4
20260506172719 58 160 2.0 2.0 0.00 0.05 0.05 51 1020.4
20260506172215 58 160 7.0 8.0 0.00 0.05 0.05 48 1020.4
20260506171713 58 160 4.0 7.0 0.00 0.05 0.05 48 1020.6
20260506171210 59 160 5.0 6.0 0.00 0.05 0.05 46 1020.4
20260506170708 59 160 0.0 0.0 0.00 0.05 0.05 51 1020.4
20260506170204 58 160 0.0 0.0 0.00 0.05 0.05 47 1020.5
20260506165703 58 160 7.0 9.0 0.00 0.05 0.05 44 1020.5
20260506165159 57 160 4.0 7.0 0.00 0.05 0.05 47 1020.6
20260506164656 57 160 3.0 3.0 0.00 0.05 0.05 47 1020.5
20260506164153 58 160 5.0 6.0 0.00 0.05 0.05 48 1020.5
20260506163650 58 160 0.0 1.0 0.00 0.05 0.05 55 1020.3
20260506163145 58 160 2.0 3.0 0.00 0.05 0.05 48 1020.2
20260506162641 57 160 3.0 5.0 0.00 0.05 0.05 58 1020.2
20260506162139 57 160 7.0 8.0 0.00 0.05 0.05 55 1020.0
20260506161636 57 160 2.0 3.0 0.00 0.05 0.05 58 1019.9
20260506161133 57 160 2.0 2.0 0.00 0.05 0.05 58 1019.7
20260506160630 56 160 0.0 0.0 0.00 0.05 0.05 56 1019.7
20260506160126 56 160 0.0 0.0 0.00 0.05 0.05 64 1019.9
20260506155626 55 160 0.0 0.0 0.00 0.05 0.05 66 1019.7
20260506155122 54 160 1.0 2.0 0.00 0.05 0.05 70 1019.6
20260506153224 53 160 0.0 0.0 0.00 0.05 0.05 66 1019.7
20260506152721 53 160 4.0 7.0 0.00 0.05 0.05 70 1019.7
20260506152219 54 160 1.0 2.0 0.00 0.05 0.05 71 1020.0
20260506151718 53 160 2.0 3.0 0.00 0.05 0.05 70 1019.7
20260506151214 53 160 0.0 1.0 0.00 0.05 0.05 70 1019.8
20260506150710 53 160 3.0 5.0 0.00 0.05 0.05 72 1019.7
20260506150207 52 160 0.0 0.0 0.00 0.05 0.05 72 1019.6
20260506145704 52 160 2.0 6.0 0.00 0.05 0.05 70 1019.9
20260506145201 52 160 2.0 3.0 0.00 0.05 0.05 73 1019.7
20260506144659 52 160 3.0 5.0 0.00 0.05 0.05 72 1019.9
20260506144155 52 160 2.0 2.0 0.00 0.05 0.05 73 1019.9
20260506143653 52 160 1.0 1.0 0.00 0.05 0.05 73 1020.0
20260506143150 51 160 2.0 2.0 0.00 0.05 0.05 74 1020.2
20260506142649 51 160 2.0 2.0 0.00 0.05 0.05 76 1020.1
20260506142146 51 160 2.0 2.0 0.00 0.05 0.05 77 1019.9
20260506141644 51 160 2.0 2.0 0.00 0.05 0.05 77 1019.9
20260506141142 51 160 1.0 2.0 0.00 0.05 0.05 81 1019.7
20260506140639 50 160 1.0 1.0 0.00 0.05 0.05 81 1019.7
20260506140136 50 160 1.0 2.0 0.00 0.05 0.05 82 1019.6
20260506135633 50 160 1.0 1.0 0.00 0.05 0.05 85 1019.6
20260506135129 49 160 0.0 0.0 0.00 0.05 0.05 89 1019.7
20260506134626 49 160 2.0 2.0 0.00 0.05 0.05 91 1019.8
20260506134121 48 160 2.0 2.0 0.00 0.05 0.05 93 1019.5
20260506133619 48 160 1.0 1.0 0.00 0.05 0.05 94 1019.3
20260506133116 47 160 0.0 0.0 0.00 0.05 0.05 96 1019.3
20260506132614 47 160 0.0 1.0 0.00 0.05 0.05 96 1019.1
20260506132110 47 160 0.0 0.0 0.00 0.05 0.05 97 1018.9
20260506131608 46 160 0.0 0.0 0.00 0.05 0.05 97 1018.6
20260506131104 46 160 0.0 0.0 0.00 0.05 0.05 97 1018.9
20260506130601 46 160 0.0 0.0 0.00 0.05 0.05 97 1018.7
20260506130059 46 160 0.0 0.0 0.00 0.05 0.05 97 1018.7
20260506125557 46 160 0.0 0.0 0.00 0.05 0.05 97 1018.4
20260506125054 45 160 0.0 0.0 0.00 0.05 0.05 97 1018.7
20260506124552 45 160 0.0 0.0 0.00 0.05 0.05 97 1018.6
20260506124049 45 160 0.0 0.0 0.00 0.05 0.05 97 1018.7
20260506123547 45 160 0.0 0.0 0.00 0.05 0.05 97 1018.7
20260506123045 45 160 0.0 0.0 0.00 0.05 0.05 97 1018.7
20260506122541 45 160 0.0 0.0 0.00 0.05 0.05 97 1018.9
20260506122040 45 160 0.0 0.0 0.00 0.05 0.05 97 1018.8
20260506121537 44 160 0.0 0.0 0.00 0.05 0.05 97 1019.0
20260506121033 44 160 0.0 0.0 0.00 0.05 0.05 97 1018.6
20260506120531 44 160 0.0 0.0 0.00 0.05 0.05 97 1018.1
20260506120028 44 160 0.0 0.0 0.00 0.05 0.05 97 1018.2
20260506115526 44 160 0.0 0.0 0.00 0.05 0.05 97 1018.2
20260506115024 44 160 0.0 0.0 0.00 0.05 0.05 97 1018.0
20260506114521 44 160 0.0 0.0 0.00 0.05 0.05 97 1018.3
20260506114020 43 160 0.0 0.0 0.00 0.05 0.05 97 1018.2
20260506113517 43 161 0.0 0.0 0.00 0.05 0.05 96 1018.0
20260506113014 43 161 0.0 0.0 0.00 0.05 0.05 96 1018.2
20260506112511 43 161 0.0 0.0 0.00 0.05 0.05 96 1018.6
20260506112008 42 161 0.0 0.0 0.00 0.05 0.05 96 1018.4
20260506111506 43 161 0.0 0.0 0.00 0.05 0.05 96 1018.1
20260506111003 43 161 0.0 0.0 0.00 0.05 0.05 96 1018.2
20260506110501 43 161 0.0 0.0 0.00 0.05 0.05 96 1018.3
20260506105957 43 161 0.0 0.0 0.00 0.05 0.05 96 1018.4
20260506105453 44 161 0.0 0.0 0.00 0.05 0.05 96 1018.5
20260506104951 44 161 0.0 0.0 0.00 0.05 0.05 96 1018.4
20260506104449 44 161 0.0 0.0 0.00 0.05 0.05 96 1018.3
20260506103947 44 161 0.0 0.0 0.00 0.05 0.05 96 1017.6
20260506103444 44 161 0.0 0.0 0.00 0.05 0.05 96 1018.1
20260506102940 44 161 0.0 0.0 0.00 0.05 0.05 95 1017.9
20260506102439 44 162 0.0 0.0 0.00 0.05 0.05 95 1017.8
20260506101936 44 162 0.0 0.0 0.00 0.05 0.05 95 1017.4
20260506101432 44 162 0.0 0.0 0.00 0.05 0.05 95 1017.6
20260506100929 44 162 0.0 0.0 0.00 0.05 0.05 95 1017.0
20260506100427 44 162 0.0 0.0 0.00 0.05 0.05 95 1016.8
20260506095925 44 162 0.0 0.0 0.00 0.05 0.05 95 1016.9
20260506095424 44 162 0.0 0.0 0.00 0.05 0.05 95 1016.4
20260506094919 44 163 0.0 0.0 0.00 0.05 0.05 95 1016.4
20260506094418 44 163 0.0 0.0 0.00 0.05 0.05 95 1016.6
20260506093915 44 163 0.0 0.0 0.00 0.05 0.05 95 1016.3
20260506093413 44 163 0.0 0.0 0.00 0.05 0.05 95 1016.7
20260506092911 44 163 0.0 0.0 0.00 0.05 0.05 95 1016.6
20260506092409 44 163 0.0 0.0 0.00 0.05 0.05 95 1016.5
20260506091905 44 164 0.0 0.0 0.07 0.05 0.05 95 1017.1
20260506091403 44 164 0.0 0.0 0.07 0.05 0.05 95 1017.5
20260506090900 44 163 0.0 0.0 0.00 0.04 0.04 95 1016.9
20260506090357 44 163 0.0 1.0 0.00 0.04 0.04 94 1017.2
20260506085854 44 163 0.0 0.0 0.00 0.04 0.04 94 1017.1
20260506085350 44 163 0.0 0.0 0.00 0.04 0.04 94 1017.3
20260506084847 44 163 0.0 0.0 0.07 0.04 0.04 94 1017.4
20260506084344 44 163 0.0 0.0 0.12 0.04 0.04 93 1017.1
20260506083840 44 163 2.0 2.0 0.05 0.03 0.03 93 1017.1
20260506083338 45 163 0.0 0.0 0.00 0.02 0.02 93 1017.1
20260506082835 45 163 0.0 0.0 0.00 0.02 0.02 93 1016.7
20260506082331 45 163 0.0 0.0 0.00 0.02 0.02 92 1016.7
20260506081828 45 163 0.0 0.0 0.00 0.02 0.02 92 1016.3
20260506081326 45 163 0.0 0.0 0.00 0.02 0.02 92 1016.4
20260506080823 45 163 3.0 5.0 0.00 0.02 0.02 92 1016.6
20260506080319 45 163 2.0 2.0 0.00 0.02 0.02 92 1016.8
20260506073304 45 164 1.0 2.0 0.00 0.02 0.02 94 1015.7
20260506072800 45 164 0.0 0.0 0.00 0.02 0.02 95 1016.0
20260506072258 45 164 2.0 2.0 0.07 0.02 0.02 96 1016.0
20260506071755 45 164 0.0 0.0 0.07 0.02 0.02 96 1016.2
20260506071254 45 164 0.0 0.0 0.00 0.01 0.01 97 1015.9
20260506070750 45 165 3.0 5.0 0.00 0.01 0.01 97 1015.8
20260506070247 45 165 0.0 0.0 0.00 0.01 0.01 97 1015.7
20260506062224 46 168 0.0 0.0 0.00 0.00 0.00 98 1016.3
20260506061720 46 168 0.0 0.0 0.00 0.00 0.00 98 1016.4
20260506061218 47 169 0.0 0.0 0.00 0.00 0.00 98 1016.4
20260506060716 47 169 0.0 0.0 0.00 0.00 0.00 98 1016.3
20260506060213 47 170 0.0 0.0 0.00 0.00 0.00 98 1016.0
20260506051145 46 180 0.0 0.0 0.00 0.00 0.00 98 1015.6
20260506050643 46 181 0.0 0.0 0.00 0.00 0.00 98 1015.8
20260506050140 46 182 0.0 0.0 0.00 0.00 0.00 98 1015.9
20260506045133 46 184 0.0 0.0 0.00 0.25 0.25 98 1015.8
20260506044631 46 185 0.0 0.0 0.00 0.25 0.25 98 1015.8
20260506044128 46 185 0.0 0.0 0.00 0.25 0.25 98 1015.7
20260506043625 46 186 0.0 0.0 0.00 0.25 0.25 98 1015.9
20260506043123 46 187 0.0 0.0 0.00 0.25 0.25 98 1015.7
20260506042622 46 188 0.0 0.0 0.00 0.25 0.25 98 1015.1
20260506042119 46 189 0.0 0.0 0.00 0.25 0.25 98 1014.8
20260506041618 46 189 0.0 0.0 0.00 0.25 0.25 98 1015.7
20260506041114 46 190 0.0 0.0 0.00 0.25 0.25 98 1015.5
20260506040612 46 191 0.0 0.0 0.00 0.25 0.25 98 1015.3
20260506040108 46 192 0.0 0.0 0.00 0.25 0.25 98 1015.1
20260506035605 46 193 0.0 0.0 0.00 0.25 0.25 98 1015.4
20260506035102 46 193 0.0 0.0 0.00 0.25 0.25 98 1015.5
20260506034559 46 194 0.0 0.0 0.00 0.25 0.25 97 1015.5
20260506034056 46 195 0.0 0.0 0.00 0.25 0.25 97 1015.5
20260506033553 46 196 0.0 0.0 0.00 0.25 0.25 97 1015.5
20260506033050 46 196 0.0 0.0 0.00 0.25 0.25 97 1015.3
20260506032548 46 197 0.0 0.0 0.00 0.25 0.25 97 1015.3
20260506032044 46 198 0.0 0.0 0.00 0.25 0.25 97 1015.3
20260506031542 46 198 0.0 0.0 0.00 0.25 0.25 97 1014.9
20260506031038 46 199 0.0 0.0 0.00 0.25 0.25 97 1014.9
20260506030537 46 200 0.0 0.0 0.00 0.25 0.25 97 1014.9
20260506030034 46 200 0.0 0.0 0.00 0.25 0.25 97 1015.0
20260506025531 46 201 0.0 0.0 0.00 0.25 0.25 97 1015.0
20260506025027 46 201 0.0 0.0 0.00 0.25 0.25 97 1014.7
20260506024524 46 202 0.0 0.0 0.00 0.25 0.25 97 1014.6
20260506024020 46 203 0.0 0.0 0.00 0.25 0.25 97 1014.8
20260506023516 46 204 0.0 0.0 0.00 0.25 0.25 97 1014.3
20260506023014 46 204 0.0 0.0 0.00 0.25 0.25 97 1014.5
20260506022511 46 205 0.0 0.0 0.00 0.25 0.25 97 1014.3
20260506022009 46 205 0.0 0.0 0.00 0.25 0.25 97 1014.0
20260506021506 46 206 0.0 0.0 0.00 0.25 0.25 97 1014.2
20260506021003 46 207 0.0 0.0 0.00 0.25 0.25 97 1014.4
20260506020501 46 207 0.0 0.0 0.00 0.25 0.25 97 1014.1
20260506015957 46 208 0.0 0.0 0.00 0.25 0.25 97 1013.8
20260506015455 46 208 0.0 0.0 0.00 0.25 0.25 97 1014.0
20260506014952 46 209 0.0 0.0 0.00 0.25 0.25 97 1013.6
20260506014449 46 209 0.0 0.0 0.00 0.25 0.25 97 1013.8
20260506013945 46 210 0.0 0.0 0.00 0.25 0.25 97 1014.1
20260506013443 46 210 0.0 0.0 0.00 0.25 0.25 97 1013.8
20260506012939 46 211 0.0 0.0 0.00 0.25 0.25 97 1014.0
20260506012436 46 211 0.0 0.0 0.00 0.25 0.25 97 1013.7
20260506011933 46 212 0.0 0.0 0.00 0.25 0.25 96 1013.6
20260506011430 46 212 0.0 0.0 0.00 0.25 0.25 96 1013.8
20260506010927 46 213 0.0 0.0 0.00 0.25 0.25 96 1014.0
20260506010426 46 213 0.0 0.0 0.00 0.25 0.25 96 1013.4
20260506005921 46 214 0.0 0.0 0.00 0.25 0.25 96 1013.6
20260506005420 46 214 0.0 0.0 0.00 0.25 0.25 96 1013.5
20260506004914 46 214 0.0 0.0 0.00 0.25 0.25 96 1013.4
20260506004413 46 215 0.0 0.0 0.00 0.25 0.25 96 1013.4
20260506003908 46 215 0.0 0.0 0.00 0.25 0.25 96 1013.1
20260506003405 46 215 0.0 1.0 0.00 0.25 0.25 96 1013.1
20260506002902 46 215 0.0 0.0 0.00 0.25 0.25 96 1013.2
20260506002358 46 215 0.0 0.0 0.00 0.25 0.25 96 1013.2
20260506001853 46 215 0.0 0.0 0.00 0.25 0.25 96 1013.3
20260506001350 46 216 0.0 0.0 0.00 0.25 0.25 96 1013.3
20260506000847 46 216 0.0 0.0 0.00 0.25 0.25 96 1013.1
20260506000346 46 216 0.0 0.0 0.00 0.25 0.25 96 1013.3
20260505235842 46 217 0.0 0.0 0.00 0.25 0.25 96 1013.2
20260505235339 47 217 0.0 0.0 0.00 0.25 0.25 96 1013.0
20260505234836 47 218 0.0 0.0 0.00 0.25 0.25 96 1013.2
20260505234334 47 218 0.0 0.0 0.00 0.25 0.25 96 1013.2
20260505233831 46 217 0.0 0.0 0.00 0.25 0.25 96 1013.2
20260505233329 46 217 0.0 0.0 0.00 0.25 0.25 96 1012.9
20260505232826 46 217 0.0 1.0 0.00 0.25 0.25 96 1013.1
20260505232323 46 218 0.0 0.0 0.00 0.25 0.25 96 1013.2
20260505231820 46 219 0.0 0.0 0.00 0.25 0.25 96 1013.0
20260505231318 46 220 0.0 0.0 0.00 0.25 0.25 96 1012.9
20260505230816 46 220 0.0 0.0 0.00 0.25 0.25 96 1013.1
20260505230313 46 220 0.0 0.0 0.00 0.25 0.25 96 1012.9
20260505225809 46 220 1.0 2.0 0.00 0.25 0.25 96 1012.7
20260505225306 46 221 0.0 0.0 0.00 0.25 0.25 96 1013.0
20260505224801 46 221 0.0 0.0 0.00 0.25 0.25 96 1013.2
20260505224259 46 222 0.0 1.0 0.00 0.25 0.25 96 1013.1
20260505223757 46 222 0.0 0.0 0.00 0.25 0.25 96 1013.4
20260505223253 46 223 0.0 0.0 0.00 0.25 0.25 96 1013.6
20260505222749 46 223 0.0 0.0 0.00 0.25 0.25 96 1013.6
20260505222245 46 223 0.0 0.0 0.00 0.25 0.25 96 1013.7
20260505221743 46 223 0.0 0.0 0.00 0.25 0.25 96 1014.0
20260505221239 46 224 0.0 0.0 0.00 0.25 0.25 96 1014.0
20260505220736 46 226 0.0 0.0 0.00 0.25 0.25 96 1013.5
20260505220233 46 227 0.0 0.0 0.00 0.25 0.25 95 1013.5
20260505215732 45 227 0.0 0.0 0.00 0.25 0.25 95 1013.3
20260505215229 45 227 1.0 1.0 0.00 0.25 0.25 95 1013.4
20260505214727 45 228 2.0 2.0 0.00 0.25 0.25 95 1012.9
20260505214224 45 228 0.0 1.0 0.00 0.25 0.25 95 1013.0
20260505213721 46 228 1.0 1.0 0.00 0.25 0.25 95 1013.4
20260505213218 46 229 2.0 2.0 0.00 0.25 0.25 95 1013.4
20260505212714 46 229 0.0 0.0 0.00 0.25 0.25 95 1013.6